www.pogodaiklimat.ru

Погода и климат >> Архив погоды >> Бразилия >> Токантинс >> Палмас


ПОГОДА в Палмасе

  • Прогноз погоды в Палмасе
  • Монитор погоды в Палмасе

АРХИВ ПОГОДЫ в Палмасе

Время (UTC), дата Ветер
(напр.,м/с)
 
Видим.   Явления Облачность Т
(С)
Тd
(С)
f
(%)
Тe
(С)
Тes
(С)
Комфортность P
(гПа)
Po
(гПа)
Тmin
(С)
Tmax
(С)
R
(мм)
R24
(мм)
S
(см)
22 12.09 СВ 1
{1}
н/о н/о +32.1 +8.3 23 +31 +31 жарко 1009.8 977.3
23 12.09 штиль 0
{1}
н/о н/о +30.5 +9.1 26 +30 +30 жарко 1010.5 977.8
01 13.09 штиль 0
{2}
н/о н/о +26.9 +10.4 36 +28 +28 жарко 1011.8 978.7
02 13.09 штиль 0
{1}
н/о н/о +26.8 +9.8 34 +27 +27 жарко 1011.8 978.7
03 13.09 штиль 0
{2}
н/о н/о +25.5 +12.2 44 +27 +27 жарко 1011.8 978.6
04 13.09 СЗ 1
{2}
н/о н/о +25.5 +16.7 58 +29 +29 душно 1010.9 977.7
05 13.09 штиль 0
{2}
н/о н/о +26.7 +17.8 58 +31 +31 душно 1010.6 977.5
06 13.09 С 1
{2}
н/о н/о +26.6 +9.7 35 +27 +27 жарко 1010.3 977.2
07 13.09 В 2
{3}
н/о н/о +30.5 +7.0 23 +29 +29 жарко 1009.6 977.0
08 13.09 В 2
{3}
н/о н/о +30.4 +7.1 23 +29 +29 жарко 1010.0 977.3
09 13.09 штиль 0
{3}
н/о н/о +27.5 +9.5 32 +28 +28 жарко 1011.1 978.1
10 13.09 штиль 0
{4}
н/о н/о +26.3 +18.5 62 +31 +31 душно 1012.4 979.2
11 13.09 В 2
{4}
н/о н/о +32.3 +9.0 24 +31 +31 жарко 1011.9 979.4
12 13.09 В 3
{7}
н/о н/о +34.3 +9.9 23 +33 +33 жарко 1012.3 980.0
13 13.09 В 3
{7}
н/о н/о +35.5 +11.2 23 +35 +35 очень
жарко
1012.7 980.5
14 13.09 СВ 3
{6}
н/о н/о +36.4 +11.0 22 +36 +36 очень
жарко
1012.1 980.0
15 13.09 СВ 3
{6}
н/о н/о +37.7 +10.5 19 +36 +36 очень
жарко
1011.2 979.3
16 13.09 В 2
{6}
н/о н/о +40.2 +7.0 13 +38 +38 очень
жарко
1009.7 978.1
17 13.09 С 2
{4}
н/о н/о +38.4 +8.6 16 +36 +36 очень
жарко
1008.8 977.0
18 13.09 СВ 2
{3}
н/о н/о +39.4 +8.1 15 +37 +37 очень
жарко
1007.9 976.2
19 13.09 В 1
{3}
н/о н/о +39.1 +7.7 15 +37 +37 очень
жарко
1007.6 975.9
20 13.09 Ю 1
{3}
н/о н/о +38.0 +8.7 17 +36 +36 очень
жарко
1007.5 975.7
21 13.09 З 1
{2}
н/о н/о +35.8 +9.1 20 +34 +34 очень
жарко
1008.1 976.1
22 13.09 штиль 0
{1}
н/о н/о +32.9 +10.7 26 +33 +33 жарко 1009.1 976.7
23 13.09 СВ 1
{2}
н/о н/о +32.2 +10.9 27 +32 +32 жарко 1009.8 977.3
01 14.09 штиль 0
{1}
н/о н/о +28.8 +11.2 34 +29 +29 жарко 1010.9 978.0
02 14.09 ЮЗ 1
{2}
н/о н/о +28.4 +13.4 40 +30 +30 жарко 1011.3 978.4
03 14.09 штиль 0
{2}
н/о н/о +27.2 +12.7 41 +29 +29 жарко 1011.1 978.1
04 14.09 СВ 1
{2}
н/о н/о +28.2 +18.7 56 +33 +33 очень
душно
1010.3 977.4
05 14.09 ЮВ 1
{3}
н/о н/о +27.1 +15.3 48 +30 +30 душно 1009.8 976.8
06 14.09 С 1
{3}
н/о н/о +27.0 +14.5 46 +29 +29 жарко 1009.6 976.6
07 14.09 штиль 0
{2}
н/о н/о +26.7 +13.1 43 +28 +28 жарко 1009.3 976.3
08 14.09 штиль 0
{2}
н/о н/о +25.5 +14.3 50 +28 +28 жарко 1009.9 976.7
09 14.09 В 1
{3}
н/о н/о +25.1 +15.1 54 +28 +28 жарко 1011.1 977.8
10 14.09 С 1
{2}
н/о н/о +27.6 +14.4 44 +30 +30 жарко 1011.5 978.5
11 14.09 С 1
{2}
н/о н/о +30.4 +14.2 37 +32 +32 жарко 1011.8 979.1
12 14.09 В 1
{3}
н/о н/о +34.0 +12.4 27 +34 +34 очень
жарко
1012.8 980.4
13 14.09 СВ 1
{4}
н/о н/о +35.1 +9.9 22 +34 +34 очень
жарко
1012.6 980.4
14 14.09 З 1
{3}
н/о н/о +37.0 +10.9 21 +36 +36 очень
жарко
1011.7 979.7
15 14.09 З 2
{3}
н/о н/о +37.5 +12.0 22 +37 +37 очень
жарко
1010.5 978.6
16 14.09 З 2
{4}
н/о н/о +38.5 +11.2 19 +37 +37 очень
жарко
1009.2 977.4
17 14.09 СЗ 1
{4}
н/о н/о +37.8 +11.9 21 +37 +37 очень
жарко
1008.1 976.3
18 14.09 Ю 1
{3}
н/о н/о +37.6 +11.7 21 +37 +37 очень
жарко
1007.3 975.5
19 14.09 В 1
{3}
н/о н/о +38.6 +10.5 19 +38 +38 очень
жарко
1007.1 975.4
20 14.09 С 1
{5}
н/о н/о +37.6 +12.5 22 +37 +37 очень
жарко
1007.2 975.4
21 14.09 СВ 1
{2}
н/о н/о +35.6 +13.2 26 +36 +36 очень
жарко
1008.1 976.0
22 14.09 штиль 0
{1}
н/о н/о +33.4 +13.3 30 +34 +34 очень
жарко
1008.7 976.4
23 14.09 штиль 0
{1}
н/о н/о +31.8 +13.1 32 +33 +33 жарко 1009.4 976.9
01 15.09 штиль 0
{1}
н/о н/о +31.3 +12.6 32 +32 +32 жарко 1010.4 977.8
02 15.09 СВ 1
{2}
н/о н/о +31.8 +12.5 31 +32 +32 жарко 1010.1 977.6
03 15.09 СЗ 1
{3}
н/о н/о +30.3 +16.1 42 +33 +33 душно 1010.4 977.7
04 15.09 штиль 0
{2}
н/о н/о +28.1 +17.8 54 +33 +33 очень
душно
1010.0 977.1
05 15.09 штиль 0
{1}
н/о н/о +26.4 +18.0 60 +31 +31 душно 1009.7 976.6
06 15.09 штиль 0
{1}
н/о н/о +25.6 +17.4 61 +30 +30 душно 1009.9 976.7
07 15.09 штиль 0
{2}
н/о н/о +26.8 +17.7 57 +31 +31 душно 1010.6 977.5
08 15.09 СВ 1
{1}
н/о н/о +28.4 +16.5 48 +32 +32 душно 1010.6 977.7
09 15.09 СВ 1
{1}
н/о н/о +25.8 +18.0 62 +30 +30 душно 1011.8 978.6
10 15.09 С 1
{1}
н/о н/о +28.0 +18.2 55 +33 +33 очень
душно
1012.8 979.8
11 15.09 В 1
{2}
н/о н/о +30.8 +18.0 46 +35 +35 очень
душно
1013.3 980.6
12 15.09 В 2
{4}
н/о н/о +32.3 +12.2 29 +33 +33 жарко 1014.1 981.5
13 15.09 В 2
{5}
н/о н/о +34.0 +11.0 25 +34 +34 очень
жарко
1013.9 981.5
14 15.09 СВ 2
{5}
н/о н/о +34.9 +10.4 23 +34 +34 очень
жарко
1013.1 980.8
15 15.09 В 2
{4}
н/о н/о +36.9 +9.9 20 +36 +36 очень
жарко
1011.7 979.7
16 15.09 В 2
{4}
н/о н/о +37.4 +10.2 19 +36 +36 очень
жарко
1010.1 978.2
17 15.09 СВ 2
{3}
н/о н/о +37.9 +9.5 18 +36 +36 очень
жарко
1008.6 976.8
18 15.09 ЮВ 2
{4}
н/о н/о +38.9 +8.2 16 +37 +37 очень
жарко
1007.4 975.7
19 15.09 ЮВ 1
{4}
н/о н/о +37.8 +8.5 17 +36 +36 очень
жарко
1007.3 975.5
20 15.09 ЮВ 1
{3}
н/о н/о +37.9 +8.4 17 +36 +36 очень
жарко
1007.2 975.4
21 15.09 штиль 0
{3}
н/о н/о +34.9 +10.3 22 +34 +34 очень
жарко
1007.5 975.4
22 15.09 СВ 1
{1}
н/о н/о +33.3 +9.1 23 +32 +32 жарко 1008.4 976.1
23 15.09 штиль 0
{2}
н/о н/о +30.8 +9.9 27 +30 +30 жарко 1009.0 976.4
00 16.09 штиль 0
{1}
н/о н/о +29.5 +11.5 33 +30 +30 жарко 1009.8 977.1
01 16.09 штиль 0
{1}
н/о н/о +27.4 +11.3 37 +28 +28 жарко 1010.7 977.7
02 16.09 штиль 0
{1}
н/о н/о +27.9 +10.6 34 +28 +28 жарко 1011.1 978.1
03 16.09 штиль 0
{1}
н/о н/о +28.1 +10.4 33 +29 +29 жарко 1010.7 977.8
04 16.09 штиль 0
{1}
н/о н/о +26.5 +11.5 39 +28 +28 жарко 1010.4 977.3
05 16.09 штиль 0
{1}
н/о н/о +24.5 +12.5 47 +26 +26 жарко 1010.2 976.9
06 16.09 З 1
{1}
н/о н/о +26.3 +12.6 43 +28 +28 жарко 1010.1 977.0
07 16.09 СЗ 1
{2}
н/о н/о +26.5 +15.9 52 +30 +30 душно 1010.2 977.1
08 16.09 штиль 0
{1}
н/о н/о +24.0 +14.7 56 +27 +27 жарко 1010.9 977.5
09 16.09 В 1
{2}
н/о н/о +28.9 +9.8 30 +29 +29 жарко 1010.8 978.0
10 16.09 В 3
{6}
н/о н/о +30.4 +9.3 27 +30 +30 жарко 1011.6 978.9
11 16.09 В 4
{7}
н/о н/о +31.2 +10.0 27 +31 +31 жарко 1012.1 979.5
12 16.09 В 4
{8}
н/о н/о +32.5 +10.7 26 +32 +32 жарко 1012.5 980.0
13 16.09 В 3
{8}
н/о н/о +33.2 +11.0 26 +33 +33 жарко 1012.7 980.3
14 16.09 СВ 2
{6}
н/о н/о +34.8 +11.0 24 +34 +34 очень
жарко
1012.9 980.6
15 16.09 СВ 2
{5}
н/о н/о +36.2 +11.4 22 +35 +35 очень
жарко
1011.8 979.7
16 16.09 СВ 2
{4}
н/о н/о +37.3 +11.4 21 +37 +37 очень
жарко
1010.1 978.2
17 16.09 В 1
{3}
н/о н/о +37.7 +11.3 20 +37 +37 очень
жарко
1008.8 976.9
18 16.09 ЮВ 2
{4}
н/о н/о +38.1 +10.8 19 +37 +37 очень
жарко
1008.0 976.2
19 16.09 В 2
{3}
н/о н/о +37.9 +10.6 19 +37 +37 очень
жарко
1007.5 975.7
20 16.09 В 1
{3}
н/о н/о +37.9 +10.0 19 +37 +37 очень
жарко
1007.3 975.5
21 16.09 ЮВ 1
{2}
н/о н/о +34.9 +10.4 23 +34 +34 очень
жарко
1008.0 975.9
22 16.09 штиль 0
{1}
н/о н/о +32.3 +12.4 30 +33 +33 жарко 1009.0 976.6
23 16.09 штиль 0
{1}
н/о н/о +29.7 +13.0 36 +31 +31 жарко 1009.6 976.9
00 17.09 штиль 0
{2}
н/о н/о +28.7 +13.0 38 +30 +30 жарко 1010.1 977.3
01 17.09 штиль 0
{2}
н/о н/о +27.6 +12.1 38 +29 +29 жарко 1010.5 977.5
02 17.09 штиль 0
{1}
н/о н/о +28.6 +10.5 32 +29 +29 жарко 1010.6 977.7
03 17.09 ЮВ 1
{1}
н/о н/о +26.3 +12.8 43 +28 +28 жарко 1010.7 977.6
04 17.09 штиль 0
{1}
н/о н/о +25.0 +13.3 48 +27 +27 жарко 1010.1 976.9
05 17.09 Ю 1
{2}
н/о н/о +25.3 +15.1 53 +28 +28 жарко 1009.8 976.6
06 17.09 штиль 0
{2}
н/о н/о +24.7 +14.5 53 +27 +27 жарко 1009.7 976.4
07 17.09 штиль 0
{1}
н/о н/о +23.8 +14.6 56 +26 +26 жарко 1010.1 976.7
08 17.09 СВ 1
{2}
н/о н/о +28.0 +11.9 37 +29 +29 жарко 1010.1 977.2
09 17.09 СВ 3
{6}
н/о н/о +29.7 +9.6 29 +30 +30 жарко 1010.8 978.0
10 17.09 В 4
{7}
н/о н/о +28.9 +10.9 33 +29 +29 жарко 1011.8 978.9
11 17.09 В 4
{8}
н/о н/о +29.6 +11.2 32 +30 +30 жарко 1012.2 979.4
12 17.09 В 4
{8}
н/о н/о +31.1 +11.8 31 +32 +32 жарко 1012.3 979.6
13 17.09 СВ 2
{8}
н/о н/о +33.8 +11.8 26 +34 +34 очень
жарко
1012.5 980.1
14 17.09 В 3
{5}
н/о н/о +35.1 +11.9 25 +35 +35 очень
жарко
1011.9 979.7
15 17.09 СВ 2
{5}
н/о н/о +36.3 +11.7 23 +36 +36 очень
жарко
1011.1 979.0
16 17.09 СВ 2
{5}
н/о н/о +36.8 +11.2 21 +36 +36 очень
жарко
1009.5 977.5
17 17.09 С 2
{4}
н/о н/о +37.6 +10.8 20 +37 +37 очень
жарко
1007.9 976.1
18 17.09 СВ 1
{3}
н/о н/о +38.1 +10.1 19 +37 +37 очень
жарко
1007.2 975.4
19 17.09 В 2
{3}
н/о н/о +37.5 +9.8 19 +36 +36 очень
жарко
1006.8 975.0
20 17.09 ЮВ 1
{3}
н/о н/о +38.1 +9.4 18 +37 +37 очень
жарко
1006.9 975.1
21 17.09 В 1
{2}
н/о н/о +35.1 +10.4 22 +34 +34 очень
жарко
1007.3 975.2
22 17.09 штиль 0
{1}
н/о н/о +31.7 +12.3 31 +32 +32 жарко 1008.2 975.7
23 17.09 В 1
{1}
н/о н/о +30.6 +11.3 30 +31 +31 жарко 1008.5 975.9
01 18.09 СВ 1
{2}
н/о н/о +30.9 +10.1 28 +31 +31 жарко 1009.4 976.8
02 18.09 СВ 1
{2}
н/о н/о +30.0 +10.3 29 +30 +30 жарко 1009.5 976.8
03 18.09 СЗ 1
{1}
н/о н/о +28.3 +10.7 33 +29 +29 жарко 1009.5 976.6
04 18.09 штиль 0
{1}
н/о н/о +25.9 +12.1 42 +27 +27 жарко 1009.3 976.2
05 18.09 штиль 0
{1}
н/о н/о +25.0 +12.6 46 +27 +27 жарко 1008.7 975.5
06 18.09 В 1
{1}
н/о н/о +24.1 +12.9 50 +26 +26 жарко 1008.2 974.9
07 18.09 С 1
{1}
н/о н/о +24.0 +12.8 50 +26 +26 жарко 1008.5 975.2
08 18.09 СВ 2
{4}
н/о н/о +26.9 +10.9 37 +28 +28 жарко 1008.9 975.9
09 18.09 СЗ 1
{5}
н/о н/о +28.0 +12.8 39 +29 +29 жарко 1009.7 976.8
10 18.09 штиль 0
{4}
н/о н/о +29.0 +9.7 30 +29 +29 жарко 1010.4 977.6
11 18.09 СВ 2
{4}
н/о н/о +31.1 +9.3 26 +30 +30 жарко 1010.9 978.3
12 18.09 В 2
{5}
н/о н/о +33.1 +10.4 25 +33 +33 жарко 1011.4 979.0
13 18.09 В 2
{4}
н/о н/о +34.5 +10.9 24 +34 +34 очень
жарко
1011.4 979.1
14 18.09 СВ 2
{5}
н/о н/о +35.6 +11.5 23 +35 +35 очень
жарко
1010.7 978.6
15 18.09 СВ 2
{4}
н/о н/о +36.9 +11.7 22 +36 +36 очень
жарко
1009.7 977.7
16 18.09 В 1
{4}
н/о н/о +38.0 +11.2 20 +37 +37 очень
жарко
1008.3 976.5
17 18.09 С 1
{3}
н/о н/о +38.5 +10.1 18 +37 +37 очень
жарко
1007.0 975.3
18 18.09 С 1
{3}
н/о н/о +38.0 +9.2 18 +36 +36 очень
жарко
1006.1 974.4
19 18.09 В 1
{3}
н/о н/о +39.5 +9.0 16 +38 +38 очень
жарко
1005.7 974.1
20 18.09 З 1
{3}
н/о н/о +37.7 +10.4 19 +36 +36 очень
жарко
1006.1 974.3
21 18.09 В 1
{3}
н/о н/о +35.0 +12.0 25 +35 +35 очень
жарко
1006.7 974.6
22 18.09 штиль 0
{1}
н/о н/о +32.5 +12.0 29 +33 +33 жарко 1007.2 974.9
23 18.09 штиль 0
{1}
н/о н/о +31.0 +11.4 30 +31 +31 жарко 1008.0 975.5
01 19.09 штиль 0
{1}
н/о н/о +29.1 +11.7 34 +30 +30 жарко 1009.0 976.2
02 19.09 СВ 1
{2}
н/о н/о +31.1 +10.1 27 +31 +31 жарко 1008.7 976.2
03 19.09 штиль 0
{1}
н/о н/о +26.3 +13.6 45 +28 +28 жарко 1009.1 976.0
04 19.09 штиль 0
{1}
н/о н/о +26.6 +17.8 58 +31 +31 душно 1008.4 975.4
05 19.09 В 1
{1}
н/о н/о +24.3 +16.3 61 +28 +28 душно 1008.5 975.2
06 19.09 штиль 0
{1}
н/о н/о +24.1 +16.4 62 +28 +28 душно 1008.1 974.8
07 19.09 В 1
{2}
н/о н/о +24.8 +16.9 61 +28 +28 жарко 1008.7 975.5
08 19.09 СВ 1
{2}
н/о н/о +24.8 +16.7 61 +28 +28 жарко 1009.1 975.9
09 19.09 СВ 1
{1}
н/о н/о +25.3 +13.8 49 +28 +28 жарко 1009.9 976.7
10 19.09 СЗ 1
{2}
н/о н/о +28.4 +15.0 44 +31 +31 душно 1010.3 977.4
11 19.09 С 1
{2}
н/о н/о +30.7 +15.7 40 +33 +33 душно 1010.7 978.1
12 19.09 С 1
{3}
н/о н/о +32.9 +15.6 35 +35 +35 душно 1010.9 978.5
13 19.09 СВ 2
{4}
н/о н/о +35.4 +15.0 30 +37 +37 очень
душно
1010.7 978.5
14 19.09 СВ 2
{5}
н/о н/о +36.1 +14.3 27 +37 +37 душно 1010.2 978.1
15 19.09 СВ 2
{5}
н/о н/о +38.1 +14.0 24 +39 +39 очень
душно
1009.0 977.2
16 19.09 ЮВ 2
{4}
н/о н/о +39.2 +13.3 22 +39 +39 очень
жарко
1007.7 976.0
17 19.09 В 2
{4}
н/о н/о +39.4 +12.6 20 +39 +39 очень
жарко
1006.4 974.8
18 19.09 СВ 2
{4}
н/о н/о +37.8 +12.0 21 +37 +37 очень
жарко
1005.8 974.0
19 19.09 С 1
{3}
н/о н/о +37.6 +11.5 21 +37 +37 очень
жарко
1005.7 973.9
20 19.09 СВ 1
{3}
н/о н/о +37.7 +10.9 20 +37 +37 очень
жарко
1005.6 973.8
21 19.09 СВ 1
{3}
н/о н/о +35.9 +11.1 22 +35 +35 очень
жарко
1006.2 974.2
22 19.09 СВ 1
{2}
н/о н/о +33.3 +12.1 28 +34 +34 очень
жарко
1006.8 974.6
23 19.09 СВ 1
{2}
н/о н/о +32.4 +11.9 29 +33 +33 жарко 1007.4 975.0

 

Местоположение метеостанции Палмас (Токантинс, Бразилия): широта -10.18 долгота -48.30 высота над уровнем моря 282 м.

В архиве по умолчанию представлена погода в Палмасе за последнюю неделю. Архивные данные за месяц целиком и за предыдущие месяцы, начиная с января 2011 года, Вы можете получить, выбрав интересующий диапазон дат из раскрывающегося списка и нажав кнопку "Ввод!".


*Определитесь, кто Вы:
робот инопланетянин человек

Внимание! Время в таблицах - всемирное. Для получения местного времени необходимо прибавить поправку, которая равна -3 ч.

Смотрите также архив погоды в соседних городах и на ближайших метеорологических станциях:

Погода в Порту-Насиунал (Токантинс, Бразилия) (66 км)
Погода в Педру-Афонсу (Токантинс, Бразилия) (135 км)
Погода в Педру-Афонсу (Токантинс, Бразилия) (135 км)
Погода в Санта-Роза-ду-Токантинсе (Токантинс, Бразилия) (140 км)
Погода в Пиуне (Токантинс, Бразилия) (149 км)
Погода в Алмасе (Токантинс, Бразилия) (171 км)
Погода в Лагоа-да-Конфузане (Токантинс, Бразилия) (183 км)
Погода в Гурупи (Токантинс, Бразилия) (193 км)
Погода в Пейши (Токантинс, Бразилия) (206 км)
Погода в Пейши (Токантинс, Бразилия) (210 км)

Пояснения к столбцам:

Ветер - указаны скорость ветра в м/с - средняя за 10 мин, порывы в срок и между сроками (в фигурных скобках) и направление, откуда дует ветер: С - северный, СВ - северо-восточный, В - восточный, ЮВ - юго-восточный, Ю - южный, ЮЗ - юго-западный, З - западный, СЗ - северо-западный.
Видимость - горизонтальная дальность видимости в метрах или километрах. При видимости от 1 до 10 км при отсутствии осадков обычно наблюдается дымка, при ухудшении видимости до 1 км и менее - туман. В сухую погоду видимость может ухудшаться дымом, пылью или мглою.
Явления - указаны атмосферные явления, наблюдавшиеся в срок или в последний час перед сроком; фигурными скобками обозначены явления, наблюдавшиеся между сроками (за 1-3 часа до срока); квадратными скобками обозначены град или гололедные отложения с указанием их диаметра в мм.
Облачность - указаны через наклонную черту общая и нижняя облачность в баллах и высота нижней границы облаков в метрах; квадратными скобками обозначены формы облаков: Ci - перистые, Cs - перисто-слоистые, Cc - перисто-кучевые, Ac - высококучевые, As - высокослоистые, Sc - слоисто-кучевые, Ns - слоисто-дождевые, Cu - кучевые, Cb - кучево-дождевые. Подробнее классификацию облаков см. в Атласе облаков (PDF).
T - Температура воздуха - температура, измеренная на высоте 2 м над землей.
Td - Температура точки росы - температура, при понижении до которой содержащийся в воздухе водяной пар достигнет насыщения.
f - Относительная влажность воздуха - влажноcть воздуха, измеренная на высоте 2 м над землей.
Te - Эффективная температура - температура, которую ощущает одетый по сезону человек в тени. Характеристика душности погоды. При расчете учитывается влияние влажности воздуха и скорости ветра на теплоощущения человека.
Tes - Эффективная температура на солнце - температура, которую ощущает человек, с поправкой на солнечный нагрев. Характеристика знойности погоды. Зависит от высоты солнца над горизонтом, облачности и скорости ветра. Ночью, в пасмурную погоду, а также при ветре 12 м/с и более поправка равна нулю.
P - Атмосферное давление - приведенное к уровню моря атмосферное давление.
Po - Атмосферное давление - измеренное на уровне метеостанции атмосферное давление.
Tmin - Минимальная температура - минимум температуры воздуха на высоте 2 м над землей.
Tmax - Максимальная температура - максимум температуры воздуха на высоте 2 м над землей.
R - Количество осадков - Количество выпавших осадков за период времени, мм. При наведении курсора мыши на число - период времени, за который выпало указанное количество осадков.
R24 - Количество осадков - Количество выпавших осадков за 24 часа, мм.
S - Снежный покров - Высота снежного покрова, см. При наведении курсора мыши на число - состояние снежного покрова и степень покрытия местности в баллах.